FW2847 Weather Reports


time (UTC)temp
C
wind
direction
speed
KPH
gust
KPH
rain 1hr
cm
rain 24hr
cm
rain mn
cm
humidity
%
barometer
mb
20260506045133 -1 352 0.0 0.0 0.00 0.41 0.41 96 1020.6
20260506044403 -1 25 0.0 0.0 0.00 0.41 0.41 96 1020.6
20260506043907 -1 33 0.0 0.0 0.00 0.41 0.41 96 1020.6
20260506043902 -1 51 0.0 0.0 0.00 0.41 0.41 96 1020.6
20260506043525 -1 26 0.0 0.0 0.00 0.41 0.41 96 1020.6
20260506042403 -1 13 0.0 1.6 0.00 0.41 0.41 96 1020.6
20260506042136 -1 24 0.0 1.6 0.00 0.41 0.41 96 1020.6
20260506041634 -1 317 0.0 3.2 0.00 0.41 0.41 96 1020.6
20260506040902 -1 19 0.0 3.2 0.00 0.41 0.41 96 1020.6
20260506040637 -1 340 0.0 3.2 0.00 0.41 0.41 96 1020.6
20260506035902 -1 310 0.0 6.4 0.00 0.41 0.41 96 1020.6
20260506035630 -1 356 1.6 6.4 0.00 0.41 0.41 96 1020.6
20260506035130 -1 347 1.6 6.4 0.00 0.41 0.41 96 1020.6
20260506034400 -1 347 3.2 8.0 0.00 0.43 0.41 96 1020.6
20260506034356 -1 327 3.2 8.0 0.00 0.41 0.41 96 1020.6
20260506033350 -1 345 1.6 6.4 0.00 0.43 0.41 96 1020.6
20260506032850 -1 331 1.6 6.4 0.00 0.46 0.41 96 1020.6
20260506032348 -1 338 1.6 6.4 0.00 0.48 0.41 96 1020.6
20260506031851 -1 2 0.0 4.8 0.00 0.51 0.41 96 1020.6
20260506031350 -1 309 1.6 4.8 0.00 0.56 0.41 96 1020.6
20260506031119 -1 17 0.0 4.8 0.00 0.58 0.41 96 1020.6
20260506030350 -1 359 0.0 1.6 0.00 0.61 0.41 96 1020.6
20260506025850 -1 13 0.0 3.2 0.00 0.66 0.41 96 1020.6
20260506025348 -1 36 0.0 3.2 0.00 0.69 0.41 96 1020.6
20260506024848 -1 343 1.6 4.8 0.00 0.74 0.41 96 1020.6
20260506024349 -1 333 1.6 6.4 0.00 0.79 0.41 96 1020.6
20260506024117 -1 319 1.6 6.4 0.00 0.81 0.41 96 1020.6
20260506023346 -1 323 0.0 3.2 0.00 0.81 0.41 96 1020.6
20260506022851 -1 321 0.0 4.8 0.00 0.81 0.41 96 1020.6
20260506022847 -1 321 0.0 4.8 0.00 0.81 0.41 96 1020.6
20260506021848 -1 356 1.6 4.8 0.00 0.81 0.41 96 1020.6
20260506021345 -1 343 1.6 4.8 0.00 0.81 0.41 96 1020.6
20260506020846 -1 326 1.6 4.8 0.00 0.81 0.41 96 1020.6
20260506020345 -1 328 1.6 4.8 0.00 0.81 0.41 96 1020.6
20260506015845 -1 322 1.6 4.8 0.00 0.81 0.41 96 1020.6
20260506015343 -1 330 1.6 4.8 0.00 0.81 0.41 96 1020.6
20260506014844 -1 315 1.6 4.8 0.00 0.81 0.41 96 1020.6
20260506014342 -1 11 0.0 4.8 0.00 0.81 0.41 96 1020.6
20260506013842 -1 13 0.0 4.8 0.00 0.81 0.41 96 1020.6
20260506013343 0 6 0.0 4.8 0.00 0.81 0.41 96 1020.6
20260506012849 0 4 1.6 6.4 0.00 0.81 0.41 96 1020.6
20260506012844 0 56 1.6 4.8 0.00 0.81 0.41 96 1020.6
20260506012113 0 4 1.6 6.4 0.00 0.81 0.41 96 1020.6
20260506011343 0 354 1.6 6.4 0.00 0.81 0.41 96 1020.6
20260506010842 0 347 3.2 8.0 0.00 0.81 0.41 96 1020.6
20260506010342 0 301 3.2 8.0 0.00 0.81 0.41 96 1020.6
20260506005843 0 338 3.2 8.0 0.00 0.81 0.41 96 1020.6
20260506005342 0 47 3.2 9.7 0.00 0.81 0.41 96 1020.6
20260506004843 0 358 4.8 11.3 0.00 0.81 0.41 96 1020.6
20260506004342 0 4 4.8 11.3 0.00 0.81 0.41 96 1020.6
20260506003844 0 326 6.4 11.3 0.00 0.81 0.41 96 1020.6
20260506003343 0 36 6.4 11.3 0.00 0.81 0.41 96 1020.6
20260506002842 0 316 6.4 12.9 0.00 0.81 0.41 96 1020.6
20260506002342 0 352 6.4 12.9 0.00 0.81 0.41 96 1020.6
20260506001844 0 354 6.4 11.3 0.00 0.81 0.41 96 1020.6
20260506001340 0 352 6.4 11.3 0.00 0.81 0.41 96 1020.6
20260506001113 0 20 6.4 11.3 0.00 0.81 0.41 96 1020.6
20260506000611 0 26 6.4 16.1 0.00 0.81 0.41 96 1020.6
20260505235841 0 350 6.4 16.1 0.00 0.81 0.41 96 1020.6
20260505235342 0 345 6.4 11.3 0.00 0.81 0.41 96 1020.6
20260505235111 0 340 6.4 9.7 0.00 0.81 0.41 96 1020.6
20260505234612 0 345 4.8 12.9 0.00 0.81 0.41 96 1020.6
20260505233841 0 6 4.8 12.9 0.00 0.81 0.41 96 1020.6
20260505233341 0 326 4.8 16.1 0.00 0.81 0.41 96 1020.6
20260505232840 0 352 6.4 16.1 0.00 0.81 0.41 96 1020.6
20260505232338 0 329 8.0 16.1 0.00 0.81 0.41 96 1020.6
20260505231839 0 8 8.0 16.1 0.00 0.81 0.41 96 1020.6
20260505231340 0 0 8.0 16.1 0.00 0.81 0.41 96 1020.6
20260505230839 0 327 8.0 16.1 0.00 0.81 0.41 96 1020.6
20260505230339 0 323 9.7 20.9 0.00 0.81 0.41 96 1020.6
20260505225838 0 351 9.7 20.9 0.00 0.81 0.41 96 1020.6
20260505225340 0 335 9.7 17.7 0.00 0.81 0.41 96 1020.6
20260505224839 0 317 9.7 17.7 0.00 0.81 0.41 96 1020.6
20260505224610 0 8 9.7 19.3 0.00 0.81 0.41 96 1020.6
20260505223838 0 293 8.0 19.3 0.00 0.81 0.41 96 1020.6
20260505223336 0 39 9.7 19.3 0.00 0.81 0.41 96 1020.6
20260505222837 0 32 9.7 19.3 0.00 0.81 0.41 96 1020.6
20260505222606 0 320 8.0 20.9 0.03 0.81 0.41 96 1020.6
20260505221836 0 5 9.7 20.9 0.03 0.81 0.41 96 1020.6
20260505221337 0 26 11.3 24.1 0.03 0.81 0.41 96 1020.6
20260505220836 0 15 11.3 24.1 0.03 0.81 0.41 96 1020.6
20260505220609 0 36 9.7 16.1 0.03 0.81 0.41 96 1020.6
20260505215841 0 338 8.0 20.9 0.03 0.81 0.41 96 1020.6
20260505215837 0 347 8.0 20.9 0.03 0.81 0.41 96 1020.6
20260505214838 0 321 9.7 16.1 0.05 0.81 0.41 96 1020.6
20260505214609 0 324 9.7 20.9 0.05 0.81 0.41 96 1020.6
20260505213836 0 44 9.7 24.1 0.05 0.81 0.41 96 1020.6
20260505213607 0 337 6.4 24.1 0.05 0.81 0.41 96 1020.6
20260505212836 0 343 3.2 11.3 0.08 0.81 0.41 96 1020.6
20260505212337 0 332 3.2 8.0 0.05 0.79 0.38 96 1020.6
20260505211837 0 8 3.2 8.0 0.05 0.79 0.38 96 1020.6
20260505211337 1 9 3.2 8.0 0.08 0.79 0.38 96 1020.6
20260505210836 1 33 1.6 8.0 0.10 0.79 0.38 96 1020.6
20260505210336 1 43 3.2 8.0 0.10 0.79 0.38 96 1020.6
20260505205835 1 59 1.6 8.0 0.10 0.79 0.38 96 1020.6
20260505205337 1 11 1.6 8.0 0.10 0.79 0.38 96 1020.6
20260505204837 1 65 3.2 8.0 0.08 0.76 0.36 96 1020.6
20260505204336 1 37 3.2 8.0 0.08 0.76 0.36 96 1020.6
20260505203837 1 51 1.6 8.0 0.08 0.76 0.36 96 1020.6
20260505203335 1 79 1.6 6.4 0.08 0.76 0.36 96 1020.6
20260505202834 1 41 3.2 6.4 0.05 0.74 0.36 96 1020.6
20260505202333 1 63 3.2 9.7 0.05 0.74 0.33 96 1020.6
20260505202103 1 64 3.2 11.3 0.05 0.74 0.33 96 1020.6
20260505201332 1 40 3.2 11.3 0.03 0.71 0.30 96 1020.6
20260505200832 1 37 4.8 11.3 0.00 0.69 0.28 96 1020.6
20260505200333 2 34 4.8 11.3 0.00 0.69 0.28 96 1020.6
20260505195834 2 53 3.2 8.0 0.00 0.69 0.28 96 1020.6
20260505195604 2 58 3.2 8.0 0.00 0.69 0.28 96 1020.6
20260505194832 2 77 4.8 9.7 0.00 0.69 0.28 96 1020.6
20260505194339 2 59 3.2 8.0 0.03 0.69 0.28 96 1020.6
20260505194334 2 71 4.8 9.7 0.00 0.69 0.28 96 1020.6
20260505193331 2 77 1.6 8.0 0.03 0.69 0.28 96 1020.6
20260505192835 2 100 1.6 4.8 0.03 0.69 0.28 96 1020.6
20260505192333 2 84 1.6 6.4 0.03 0.69 0.28 96 1020.6
20260505191831 2 96 3.2 6.4 0.03 0.69 0.28 96 1020.6
20260505191332 2 96 3.2 6.4 0.03 0.69 0.28 96 1020.6
20260505190833 2 93 3.2 6.4 0.03 0.69 0.28 96 1020.6
20260505190334 2 79 3.2 8.0 0.03 0.69 0.28 96 1020.6
20260505185834 2 99 3.2 8.0 0.03 0.69 0.28 96 1020.6
20260505185332 2 82 3.2 6.4 0.03 0.69 0.28 96 1020.6
20260505184830 2 84 1.6 6.4 0.05 0.69 0.28 96 1020.6
20260505184604 2 95 3.2 8.0 0.05 0.69 0.28 96 1020.6
20260505183830 1 79 1.6 8.0 0.03 0.66 0.25 96 1020.6
20260505183333 2 95 1.6 4.8 0.03 0.66 0.25 96 1020.6
20260505183327 2 68 1.6 4.8 0.03 0.66 0.25 96 1020.6
20260505182327 2 70 1.6 3.2 0.03 0.66 0.25 96 1020.6
20260505181828 2 91 1.6 6.4 0.03 0.66 0.25 96 1020.6
20260505181325 1 98 1.6 6.4 0.03 0.66 0.25 96 1020.6
20260505180827 1 74 3.2 6.4 0.03 0.66 0.25 96 1020.6
20260505180555 1 79 3.2 9.7 0.03 0.66 0.25 96 1020.6
20260505175824 1 81 3.2 9.7 0.03 0.66 0.25 96 1020.6
20260505175555 1 72 1.6 4.8 0.03 0.66 0.25 96 1020.6
20260505174824 1 37 1.6 8.0 0.00 0.64 0.23 96 1020.6
20260505174323 1 75 1.6 8.0 0.00 0.64 0.23 96 1020.6
20260505173823 1 75 1.6 6.4 0.00 0.64 0.23 96 1020.6
20260505173326 1 40 1.6 6.4 0.00 0.64 0.23 96 1020.6
20260505173054 1 65 1.6 6.4 0.00 0.64 0.23 96 1020.6
20260505172323 1 56 1.6 6.4 0.03 0.64 0.23 96 1020.6
20260505172055 1 12 1.6 6.4 0.03 0.64 0.23 96 1020.6
20260505171554 1 353 1.6 6.4 0.03 0.64 0.23 96 1020.6
20260505170823 1 49 1.6 6.4 0.03 0.64 0.23 96 1020.6
20260505170326 1 28 1.6 4.8 0.03 0.64 0.23 96 1020.6
20260505165826 1 25 1.6 4.8 0.03 0.64 0.23 96 1020.6
20260505165821 1 353 1.6 4.8 0.03 0.64 0.23 96 1020.6
20260505164823 1 15 1.6 4.8 0.03 0.64 0.23 96 1020.6
20260505164322 1 52 0.0 4.8 0.03 0.64 0.23 96 1020.6
20260505163821 1 356 0.0 3.2 0.03 0.64 0.23 96 1020.6
20260505163322 1 13 0.0 4.8 0.03 0.64 0.23 96 1020.6
20260505162827 1 347 1.6 6.4 0.00 0.61 0.20 96 1020.6
20260505162821 1 8 1.6 6.4 0.03 0.64 0.23 96 1020.6
20260505162443 1 39 1.6 4.8 0.00 0.61 0.20 96 1020.6
20260505161323 1 29 1.6 4.8 0.00 0.61 0.20 96 1020.6
20260505161053 1 23 1.6 4.8 0.03 0.61 0.20 96 1020.6
20260505160322 1 18 1.6 4.8 0.03 0.61 0.20 96 1020.6
20260505153321 1 10 0.0 3.2 0.05 0.61 0.20 95 1020.6
20260505153052 1 57 0.0 3.2 0.05 0.61 0.20 95 1020.6
20260505152321 1 15 0.0 3.2 0.05 0.61 0.20 95 1020.6
20260505151819 1 32 0.0 4.8 0.05 0.61 0.20 95 1020.6
20260505151320 1 15 0.0 4.8 0.08 0.61 0.20 95 1020.6
20260505151047 1 347 0.0 4.8 0.05 0.58 0.18 95 1020.6
20260505150315 1 301 0.0 4.8 0.05 0.58 0.18 95 1020.6
20260505140316 0 311 3.2 8.0 0.00 0.53 0.13 95 1020.6
20260505130311 0 27 4.8 11.3 0.00 0.53 0.13 95 1020.6
20260505124811 0 292 6.4 12.9 0.00 0.53 0.13 94 1020.6
20260505124314 0 342 6.4 12.9 0.00 0.53 0.13 94 1020.6
20260505123811 0 347 4.8 11.3 0.00 0.53 0.13 94 1020.6
20260505123313 0 12 4.8 11.3 0.00 0.53 0.13 94 1020.6
20260505122812 0 350 4.8 11.3 0.00 0.53 0.13 94 1020.6
20260505122312 0 334 4.8 9.7 0.00 0.53 0.13 94 1020.6
20260505121814 0 311 4.8 9.7 0.00 0.53 0.13 94 1020.6
20260505121541 0 328 4.8 11.3 0.00 0.53 0.13 94 1020.6
20260505120815 0 310 4.8 12.9 0.03 0.53 0.13 94 1020.6
20260505120310 0 336 4.8 12.9 0.03 0.53 0.13 94 1020.6
20260505115814 0 316 4.8 11.3 0.05 0.53 0.13 94 1020.6
20260505115315 0 355 4.8 11.3 0.05 0.53 0.13 94 1020.6
20260505115039 0 328 3.2 11.3 0.05 0.53 0.13 94 1020.6
20260505114308 0 15 4.8 16.1 0.05 0.53 0.13 94 1020.6
20260505113814 0 15 6.4 16.1 0.05 0.53 0.13 94 1020.6
20260505113311 0 330 6.4 17.7 0.08 0.53 0.13 94 1020.6
20260505112808 0 9 8.0 17.7 0.08 0.53 0.13 94 1020.6
20260505112309 1 297 9.7 20.9 0.08 0.53 0.13 93 1020.6
20260505111817 1 349 9.7 24.1 0.08 0.53 0.13 93 1020.6
20260505111813 1 21 11.3 24.1 0.08 0.53 0.13 93 1020.6
20260505110810 1 295 8.0 19.3 0.05 0.51 0.10 94 1020.6
20260505110309 1 30 9.7 20.9 0.05 0.51 0.10 94 1020.6
20260505102040 2 277 11.3 24.1 0.05 0.46 0.05 94 1020.6
20260505101313 2 35 11.3 24.1 0.05 0.46 0.05 94 1020.6
20260505100811 2 296 11.3 24.1 0.05 0.46 0.05 94 1020.6
20260505100540 2 352 11.3 24.1 0.05 0.46 0.05 94 1020.6
20260505095814 3 15 11.3 22.5 0.03 0.43 0.03 94 1020.6
20260505095312 3 347 12.9 25.7 0.03 0.43 0.03 94 1020.6
20260505094810 3 51 14.5 25.7 0.03 0.43 0.03 94 1020.6
20260505094540 3 356 14.5 25.7 0.03 0.43 0.03 94 1020.6
20260505093811 3 326 14.5 25.7 0.03 0.43 0.03 93 1020.6
20260505093314 3 238 12.9 24.1 0.03 0.43 0.03 93 1020.6
20260505093309 3 323 12.9 25.7 0.03 0.43 0.03 93 1020.6
20260505092311 3 313 12.9 24.1 0.03 0.43 0.03 93 1020.6
20260505091807 3 340 12.9 22.5 0.00 0.41 0.00 93 1020.6
20260505091307 3 356 12.9 24.1 0.00 0.41 0.00 93 1020.6
20260505091039 3 321 12.9 24.1 0.00 0.41 0.00 93 1020.6
20260505090307 3 308 11.3 20.9 0.00 0.41 0.00 93 1020.6
20260505085808 3 4 11.3 20.9 0.00 0.41 0.00 92 1020.6
20260505085306 3 343 12.9 24.1 0.00 0.41 0.00 92 1020.6
20260505084810 3 7 12.9 24.1 0.00 0.41 0.00 92 1020.6
20260505084305 4 34 11.3 24.1 0.00 0.41 0.00 92 1020.6
20260505083805 4 1 11.3 24.1 0.00 0.41 0.00 92 1020.6
20260505083306 4 311 11.3 19.3 0.00 0.41 0.00 91 1020.6
20260505082807 4 0 11.3 19.3 0.00 0.41 0.00 91 1020.6
20260505082305 4 336 11.3 20.9 0.00 0.41 0.00 91 1020.6
20260505081805 4 324 12.9 24.1 0.00 0.41 0.00 91 1020.6
20260505081310 5 350 11.3 19.3 0.00 0.41 0.00 90 1020.6
20260505081306 5 337 11.3 24.1 0.00 0.41 0.00 90 1020.6
20260505080305 6 29 9.7 19.3 0.00 0.41 0.00 89 1020.6
20260505075806 6 23 4.8 19.3 0.00 0.41 0.00 89 1020.6
20260505075306 7 310 1.6 8.0 0.00 0.41 0.00 89 1020.6
20260505074806 7 344 0.0 4.8 0.00 0.41 0.00 89 1020.6
20260505074304 6 111 0.0 0.0 0.00 0.41 0.00 89 1020.6
20260505073806 6 111 0.0 0.0 0.00 0.41 0.00 88 1020.6
20260505073306 6 111 0.0 0.0 0.00 0.41 0.00 88 1020.6
20260505072806 6 111 0.0 0.0 0.00 0.41 0.00 88 1020.6
20260505072305 6 111 0.0 0.0 0.00 0.41 0.00 88 1020.6
20260505071804 6 111 0.0 0.0 0.00 0.41 0.00 88 1020.6
20260505071537 6 111 0.0 0.0 0.00 0.41 0.00 87 1020.6
20260505070803 6 111 0.0 0.0 0.00 0.41 0.00 88 1020.6
20260505070533 6 111 0.0 0.0 0.00 0.41 0.00 88 1020.6
20260505065804 6 111 0.0 0.0 0.00 0.41 0.00 88 1020.6
20260505065303 6 111 0.0 0.0 0.00 0.41 0.00 88 1020.6
20260505064758 6 111 0.0 0.0 0.00 0.41 0.00 88 1020.6
20260505064300 7 111 0.0 0.0 0.00 0.41 0.00 88 1020.6
20260505064033 7 111 0.0 0.0 0.00 0.41 0.00 88 1020.6
20260505063259 7 111 0.0 0.0 0.00 0.41 0.00 88 1020.6
20260505062757 7 111 0.0 0.0 0.00 0.41 0.00 87 1020.6
20260505062257 7 111 0.0 0.0 0.00 0.41 0.00 87 1020.6
20260505062029 7 111 0.0 0.0 0.00 0.41 0.00 87 1020.6
20260505061255 7 111 0.0 0.0 0.00 0.41 0.00 87 1020.6
20260505060754 7 111 0.0 0.0 0.00 0.41 0.00 87 1020.6
20260505060527 7 111 0.0 0.0 0.00 0.41 0.00 87 1020.6
20260505055755 7 111 0.0 0.0 0.00 0.41 0.41 87 1020.6
20260505055255 6 111 0.0 0.0 0.00 0.41 0.41 87 1020.6
20260505055027 6 111 0.0 0.0 0.00 0.41 0.41 87 1020.6
20260505054255 6 111 0.0 0.0 0.00 0.41 0.41 87 1020.6
20260505053754 6 111 0.0 0.0 0.00 0.41 0.41 87 1020.6
20260505053253 6 275 0.0 0.0 0.00 0.41 0.41 88 1020.6
20260505052754 6 275 0.0 0.0 0.00 0.41 0.41 88 1020.6
20260505052524 6 129 0.0 0.0 0.00 0.41 0.41 87 1020.6
20260505051752 6 129 0.0 1.6 0.00 0.41 0.41 87 1020.6
20260505051253 6 99 0.0 1.6 0.00 0.41 0.41 87 1020.6
20260505050755 6 105 0.0 0.0 0.00 0.41 0.41 87 1020.6
20260505050524 6 110 0.0 0.0 0.00 0.41 0.41 87 1020.6